Skip Page Navigation
NASA JPL Caltech
NASA Logo - Jet Propulsion Laboratory + View the NASA Portal
+ Center for Near-Earth Object Studies
JPL Home Earth Solar System Stars & Galaxies Technology
JPL Solar System Dynamics
BODIES ORBITS EPHEMERIDES TOOLS PHYSICAL DATA DISCOVERY FAQ SITE MAP
IMPORTANT: The SSD Announcement email list is now available. Major changes are coming in the near future, including possible hostname and/or URL changes. To be notified of such changes, subscribe to this email list.

Please visit this page for more details.


JPL Small-Body Database Browser
Search: [ help ]  
97105 (1999 VP71)
Classification: Main-belt Asteroid          SPK-ID: 2097105
Ephemeris | Orbit Diagram | Orbital Elements | Mission Design | Physical Parameters | Discovery Circumstances ]

[ show orbit diagram ]
Orbital Elements at Epoch 2458600.5 (2019-Apr-27.0) TDB
Reference: JPL 16 (heliocentric ecliptic J2000)
 Element Value Uncertainty (1-sigma)   Units 
e .07937331285931876 6.7404e-08  
a 2.67518488445073 2.2031e-08 au
q 2.462846597660702 1.816e-07 au
i 14.30604927012721 7.1124e-06 deg
node 52.301935225 2.5354e-05 deg
peri 102.8402296385959 5.5814e-05 deg
M 64.62357016226991 4.6499e-05 deg
tp 2458313.608569431133
(2018-Jul-14.10856943)
0.00020662 TDB
period 1598.192652393756
4.38
1.9742e-05
5.405e-08
d
yr
n .2252544456769938 2.7825e-09 deg/d
Q 2.887523171240759 2.378e-08 au
  Orbit Determination Parameters
   # obs. used (total)      363  
   data-arc span      7147 days (19.57 yr)  
   first obs. used      1999-10-09  
   last obs. used      2019-05-04  
   planetary ephem.      DE431  
   SB-pert. ephem.      SB431-N16  
   condition code      0  
   norm. resid. RMS      .58882  
   source      ORB  
   producer      Otto Matic  
   solution date      2019-May-30 06:13:10  

Additional Information
 Earth MOID = 1.51494 au 
 Jupiter MOID = 2.17841 au 
 T_jup = 3.330 
[ show covariance matrix ]

Ephemeris | Orbit Diagram | Orbital Elements | Mission Design | Physical Parameters | Discovery Circumstances ]

Physical Parameter Table
Parameter Symbol Value Units Sigma Reference Notes
absolute magnitude H 15.4   n/a MPO299567  
diameter diameter 4.324 km 0.102 urn:nasa:pds:neowise_diameters_albedos::2.0[mainbelt] (http://adsabs.harvard.edu/abs/2011ApJ...741...68M)  
geometric albedo albedo 0.061   0.007 urn:nasa:pds:neowise_diameters_albedos::2.0[mainbelt] (http://adsabs.harvard.edu/abs/2011ApJ...741...68M)  

97105 (1999 VP71)          Discovered 1999-Nov-04 by LINEAR at Socorro
Reference: 20050224/Numbers.arcLast Updated: 2005-02-28
Ephemeris | Orbit Diagram | Orbital Elements | Mission Design | Physical Parameters | Discovery Circumstances ]
ABOUT SSD CREDITS/AWARDS PRIVACY/COPYRIGHT GLOSSARY LINKS
FirstGov 2019-Oct-21 01:31 UT
(server date/time)  
NASA Home Page
Site Manager:   Ryan S. Park
Webmaster  Alan B. Chamberlin